CSN352 EDDM-RJTT

Flight info

Callsign CSN352
Flight time 12h 14m
Altitude 36000
Route AKINI1Q/08L AKINI Y104 MAMOR L132 AGNAV DCT SUPIL DCT KILNU L132 ABKIS/N0481F380 L132 EKPEK/N0482F370 DCT GOVEN DCT KUNER/K0889F370 DCT BALIT/N0480F370 DCT KEDUX DCT LOGNA/N0480F390 DCT BALTI DCT KOKAT/K0904F390 N746 DIROR/K0913F410 N746 GU N992 HAB L168 IGROD/N0483F410 Y304 OLKAP/N0484F430 Y304 YTE Y32 RUBIS Y10 GODIN
Aircraft A359/H-SDE2E3GHIJ3J4J5LM1ORWXY/LB1D1

Departure

Time 2026-04-30 19:18
Airport Munich Airport (EDDM)

Arrival

Time 2026-05-01 07:32
Airport Tokyo Haneda International Airport (RJTT)
Time Latitude Longitude Altitude Speed Heading
2026-04-30 17:55 48.35780 11.79258 1334 ft 0 kts 263°
2026-04-30 19:04 48.35782 11.79319 1461 ft 4 kts 275°
2026-04-30 19:05 48.35766 11.79393 1461 ft 4 kts 322°
2026-04-30 19:05 48.35754 11.79403 1461 ft 0 kts 352°
2026-04-30 19:10 48.35800 11.79394 1465 ft 8 kts 352°
2026-04-30 19:11 48.35864 11.79381 1466 ft 10 kts 352°
2026-04-30 19:11 48.35892 11.79365 1463 ft 0 kts 336°
2026-04-30 19:13 48.36000 11.79333 1468 ft 17 kts 353°
2026-04-30 19:13 48.36079 11.79133 1470 ft 15 kts 266°
2026-04-30 19:13 48.36064 11.78940 1463 ft 22 kts 262°
2026-04-30 19:14 48.36045 11.78715 1470 ft 22 kts 263°
2026-04-30 19:14 48.36026 11.78473 1464 ft 23 kts 263°
2026-04-30 19:14 48.36008 11.78227 1473 ft 24 kts 263°
2026-04-30 19:14 48.35988 11.77972 1465 ft 25 kts 263°
2026-04-30 19:15 48.35968 11.77712 1473 ft 25 kts 263°
2026-04-30 19:15 48.35928 11.77180 1467 ft 19 kts 263°
2026-04-30 19:15 48.35912 11.76975 1473 ft 20 kts 263°
2026-04-30 19:16 48.35903 11.76783 1465 ft 18 kts 278°
2026-04-30 19:16 48.35968 11.76677 1462 ft 12 kts 346°
2026-04-30 19:16 48.36143 11.76668 1464 ft 16 kts 34°
2026-04-30 19:17 48.36250 11.76808 1461 ft 24 kts 59°
2026-04-30 19:17 48.36377 11.78056 1460 ft 113 kts 83°
2026-04-30 19:17 48.36484 11.79475 1467 ft 158 kts 84°
2026-04-30 19:18 48.36694 11.82169 2521 ft 153 kts 83°
2026-04-30 19:18 48.36863 11.84345 3242 ft 159 kts 83°
2026-04-30 19:18 48.36995 11.85995 3749 ft 159 kts 83°
2026-04-30 19:19 48.37396 11.87613 3963 ft 178 kts 53°
2026-04-30 19:19 48.38432 11.88789 4247 ft 196 kts 33°
2026-04-30 19:19 48.40955 11.90871 5057 ft 213 kts 34°
2026-04-30 19:20 48.42197 11.92129 5614 ft 213 kts 46°
2026-04-30 19:20 48.43136 11.93840 6175 ft 212 kts 58°
2026-04-30 19:20 48.44782 11.97582 7282 ft 216 kts 58°
2026-04-30 19:21 48.45668 11.99396 7818 ft 218 kts 48°
2026-04-30 19:21 48.48335 12.01567 8911 ft 225 kts 18°
2026-04-30 19:22 48.51415 12.02860 9999 ft 230 kts 17°
2026-04-30 19:22 48.56030 12.04734 11676 ft 227 kts 16°
2026-04-30 19:23 48.60562 12.06568 13257 ft 230 kts 16°
2026-04-30 19:24 48.63833 12.07893 13782 ft 255 kts 16°
2026-04-30 19:24 48.65589 12.08606 14054 ft 268 kts 15°
2026-04-30 19:24 48.69321 12.10118 14784 ft 282 kts 16°
2026-04-30 19:25 48.75067 12.12539 16326 ft 289 kts 20°
2026-04-30 19:26 48.78896 12.15023 16889 ft 310 kts 26°
2026-04-30 19:26 48.82897 12.18009 17395 ft 331 kts 26°
2026-04-30 19:26 48.84971 12.19559 17615 ft 340 kts 26°
2026-04-30 19:27 48.89341 12.22767 18102 ft 357 kts 25°
2026-04-30 19:27 48.93908 12.26005 18792 ft 365 kts 25°
2026-04-30 19:28 48.96236 12.27629 19172 ft 367 kts 25°
2026-04-30 19:28 49.00899 12.30893 19919 ft 371 kts 25°
2026-04-30 19:29 49.05600 12.34206 20688 ft 374 kts 25°
2026-04-30 19:29 49.07970 12.35883 21056 ft 375 kts 25°
2026-04-30 19:30 49.15074 12.40922 22248 ft 378 kts 25°
2026-04-30 19:30 49.19872 12.44337 22955 ft 381 kts 25°
2026-04-30 19:31 49.24705 12.47783 23700 ft 384 kts 25°
2026-04-30 19:31 49.27135 12.49517 24018 ft 386 kts 25°
2026-04-30 19:31 49.31994 12.52962 24649 ft 387 kts 24°
2026-04-30 19:32 49.34547 12.54291 24945 ft 390 kts 17°
2026-04-30 19:32 49.37186 12.55289 25242 ft 392 kts 15°
2026-04-30 19:32 49.39852 12.56185 25529 ft 393 kts 14°
2026-04-30 19:32 49.42549 12.57037 25607 ft 399 kts 14°
2026-04-30 19:33 49.45275 12.57874 26050 ft 396 kts 14°
2026-04-30 19:33 49.47967 12.58695 26540 ft 394 kts 14°
2026-04-30 19:33 49.50677 12.59532 26803 ft 397 kts 14°
2026-04-30 19:33 49.53386 12.60378 27128 ft 398 kts 15°
2026-04-30 19:34 49.56104 12.61232 27470 ft 399 kts 15°
2026-04-30 19:34 49.58832 12.62069 27788 ft 401 kts 14°
2026-04-30 19:34 49.64352 12.63428 28444 ft 405 kts 12°
2026-04-30 19:35 49.67191 12.64068 28780 ft 407 kts 12°
2026-04-30 19:35 49.69994 12.64708 29081 ft 409 kts 12°
2026-04-30 19:35 49.72813 12.65369 29433 ft 410 kts 13°
2026-04-30 19:35 49.75654 12.66050 29733 ft 413 kts 13°
2026-04-30 19:36 49.78500 12.66743 30057 ft 415 kts 13°
2026-04-30 19:36 49.81324 12.67437 30352 ft 417 kts 13°
2026-04-30 19:36 49.87084 12.68854 30402 ft 418 kts 13°
2026-04-30 19:37 49.92837 12.70271 30397 ft 418 kts 13°
2026-04-30 19:37 49.98591 12.71693 30394 ft 418 kts 13°
2026-04-30 19:38 50.04338 12.73115 30386 ft 418 kts 13°
2026-04-30 19:38 50.10087 12.74542 30384 ft 418 kts 13°
2026-04-30 19:39 50.15828 12.75970 30373 ft 418 kts 13°
2026-04-30 19:39 50.21578 12.77404 30374 ft 417 kts 13°
2026-04-30 19:40 50.27315 12.78837 30378 ft 416 kts 13°
2026-04-30 19:40 50.33031 12.80280 30382 ft 415 kts 14°
2026-04-30 19:41 50.38519 12.82858 30395 ft 409 kts 27°
2026-04-30 19:41 50.43500 12.87135 30398 ft 408 kts 32°
2026-04-30 19:42 50.48325 12.91702 30410 ft 407 kts 33°
2026-04-30 19:42 50.53201 12.96365 30416 ft 408 kts 33°
2026-04-30 19:43 50.58019 13.00975 30425 ft 408 kts 33°
2026-04-30 19:44 50.64515 13.07156 30422 ft 408 kts 31°
2026-04-30 19:44 50.69593 13.11210 30426 ft 409 kts 27°
2026-04-30 19:45 50.74759 13.15059 30423 ft 410 kts 28°
2026-04-30 19:45 50.79889 13.19003 30443 ft 410 kts 28°
2026-04-30 19:46 50.84962 13.22998 30431 ft 410 kts 28°
2026-04-30 19:46 50.90100 13.27076 30428 ft 410 kts 28°
2026-04-30 19:47 50.95184 13.31202 30432 ft 408 kts 32°
2026-04-30 19:47 50.99775 13.36326 30789 ft 408 kts 38°
2026-04-30 19:47 51.02041 13.39152 31085 ft 409 kts 39°
2026-04-30 19:48 51.04255 13.41976 31317 ft 411 kts 39°
2026-04-30 19:48 51.06526 13.44898 31542 ft 414 kts 39°
2026-04-30 19:48 51.08744 13.47757 31793 ft 416 kts 39°
2026-04-30 19:48 51.11036 13.50709 32024 ft 418 kts 39°
2026-04-30 19:49 51.13297 13.53616 32242 ft 420 kts 39°
2026-04-30 19:49 51.17858 13.59478 32682 ft 423 kts 39°
2026-04-30 19:49 51.20160 13.62438 32912 ft 425 kts 39°
2026-04-30 19:50 51.22463 13.65404 33138 ft 426 kts 39°
2026-04-30 19:50 51.24762 13.68369 33427 ft 426 kts 39°
2026-04-30 19:50 51.27066 13.71345 33721 ft 426 kts 39°
2026-04-30 19:50 51.29411 13.74376 34001 ft 426 kts 39°
2026-04-30 19:51 51.31713 13.77358 34287 ft 426 kts 39°
2026-04-30 19:51 51.34005 13.80330 34526 ft 426 kts 39°
2026-04-30 19:51 51.36320 13.83337 34781 ft 425 kts 39°
2026-04-30 19:51 51.38672 13.86395 35022 ft 425 kts 39°
2026-04-30 19:52 51.40942 13.89350 35254 ft 425 kts 39°
2026-04-30 19:52 51.43213 13.92311 35483 ft 425 kts 39°
2026-04-30 19:52 51.45503 13.95301 35728 ft 425 kts 38°
2026-04-30 19:52 51.47802 13.98306 35914 ft 426 kts 38°
2026-04-30 19:53 51.50101 14.01316 36144 ft 426 kts 38°
2026-04-30 19:53 51.52395 14.04324 36369 ft 426 kts 38°
2026-04-30 19:53 51.54698 14.07345 36584 ft 425 kts 38°
2026-04-30 19:53 51.56985 14.10352 36792 ft 425 kts 38°
2026-04-30 19:54 51.59274 14.13365 37005 ft 425 kts 38°
2026-04-30 19:54 51.61568 14.16387 37217 ft 425 kts 38°
2026-04-30 19:54 51.63856 14.19407 37412 ft 425 kts 38°
2026-04-30 19:54 51.66141 14.22427 37596 ft 425 kts 38°
2026-04-30 19:55 51.68425 14.25449 37762 ft 425 kts 38°
2026-04-30 19:55 51.70682 14.28439 37949 ft 425 kts 38°
2026-04-30 19:55 51.72966 14.31470 38123 ft 425 kts 38°
2026-04-30 19:55 51.75243 14.34494 38290 ft 425 kts 38°
2026-04-30 19:56 51.77522 14.37526 38412 ft 426 kts 38°
2026-04-30 19:56 51.79820 14.40588 38417 ft 428 kts 38°
2026-04-30 19:56 51.84410 14.46714 38408 ft 428 kts 38°
2026-04-30 19:57 51.89001 14.52859 38411 ft 427 kts 38°
2026-04-30 19:57 51.93593 14.59023 38407 ft 427 kts 39°
2026-04-30 19:58 51.98168 14.65181 38413 ft 427 kts 39°
2026-04-30 19:58 52.02726 14.71332 38405 ft 427 kts 39°
2026-04-30 19:59 52.07455 14.77186 38410 ft 426 kts 33°
2026-04-30 20:00 52.14916 14.85143 38384 ft 428 kts 32°
2026-04-30 20:00 52.19917 14.90414 38410 ft 427 kts 32°
2026-04-30 20:01 52.27380 14.98330 38421 ft 426 kts 33°
2026-04-30 20:01 52.32340 15.03615 38421 ft 425 kts 32°
2026-04-30 20:02 52.39782 15.11572 38415 ft 426 kts 33°
2026-04-30 20:03 52.47188 15.19522 38414 ft 426 kts 33°
2026-04-30 20:03 52.52148 15.24863 38420 ft 426 kts 33°
2026-04-30 20:04 52.57107 15.30220 38417 ft 426 kts 33°
2026-04-30 20:05 52.64550 15.38288 38418 ft 426 kts 33°
2026-04-30 20:05 52.71973 15.46367 38427 ft 426 kts 33°
2026-04-30 20:06 52.74419 15.49036 38722 ft 428 kts 33°
2026-04-30 20:06 52.76921 15.51768 38469 ft 434 kts 33°
2026-04-30 20:06 52.81974 15.57301 38417 ft 436 kts 33°
2026-04-30 20:07 52.87022 15.62845 38420 ft 435 kts 33°
2026-04-30 20:08 52.94586 15.71182 38422 ft 435 kts 33°
2026-04-30 20:08 52.99617 15.76747 38420 ft 433 kts 33°
2026-04-30 20:09 53.04607 15.82282 38426 ft 433 kts 33°
2026-04-30 20:09 53.12108 15.90632 38425 ft 433 kts 33°
2026-04-30 20:10 53.19616 15.99026 38425 ft 431 kts 33°
2026-04-30 20:11 53.27045 16.07366 38426 ft 428 kts 33°
2026-04-30 20:11 53.31999 16.12949 38428 ft 430 kts 33°
2026-04-30 20:12 53.39455 16.21379 38425 ft 431 kts 33°
2026-04-30 20:13 53.44405 16.26997 38431 ft 429 kts 33°
2026-04-30 20:13 53.49360 16.32635 38427 ft 429 kts 33°
2026-04-30 20:14 53.54265 16.38233 38425 ft 429 kts 33°
2026-04-30 20:14 53.59200 16.43882 37137 ft 429 kts 33°
2026-04-30 20:14 53.61468 16.46483 38508 ft 429 kts 33°
2026-04-30 20:15 53.63749 16.49104 38454 ft 431 kts 33°
2026-04-30 20:15 53.67850 16.53822 38426 ft 427 kts 33°
2026-04-30 20:16 53.72755 16.59481 38425 ft 426 kts 33°
2026-04-30 20:16 53.77651 16.65145 38425 ft 426 kts 33°
2026-04-30 20:17 53.82565 16.70847 38427 ft 426 kts 33°
2026-04-30 20:17 53.87423 16.76501 38427 ft 425 kts 33°
2026-04-30 20:18 53.92292 16.82183 38428 ft 425 kts 33°
2026-04-30 20:18 53.97239 16.87973 38424 ft 425 kts 33°
2026-04-30 20:19 54.02106 16.93686 38425 ft 425 kts 33°
2026-04-30 20:19 54.06943 16.99380 38423 ft 425 kts 33°
2026-04-30 20:20 54.11800 17.05116 38427 ft 424 kts 33°
2026-04-30 20:20 54.16647 17.10854 38426 ft 424 kts 33°
2026-04-30 20:21 54.21483 17.16597 38426 ft 424 kts 33°
2026-04-30 20:21 54.26325 17.22364 38425 ft 424 kts 33°
2026-04-30 20:22 54.31160 17.28138 38468 ft 424 kts 33°
2026-04-30 20:22 54.35996 17.33932 38425 ft 424 kts 33°
2026-04-30 20:23 54.40833 17.39744 38426 ft 424 kts 33°
2026-04-30 20:23 54.45688 17.45596 38427 ft 424 kts 33°
2026-04-30 20:24 54.50502 17.51414 38427 ft 424 kts 33°
2026-04-30 20:24 54.55298 17.57228 38423 ft 424 kts 33°
2026-04-30 20:25 54.62542 17.66040 38423 ft 424 kts 33°
2026-04-30 20:26 54.69762 17.74863 38422 ft 424 kts 33°
2026-04-30 20:26 54.76985 17.83729 38424 ft 424 kts 33°
2026-04-30 20:27 54.86595 17.95587 38425 ft 424 kts 33°
2026-04-30 20:28 54.96172 18.07475 38477 ft 424 kts 33°
2026-04-30 20:30 55.08185 18.22488 38480 ft 424 kts 33°
2026-04-30 20:31 55.22542 18.40579 38476 ft 424 kts 33°
2026-04-30 20:32 55.34702 18.55092 38475 ft 423 kts 30°
2026-04-30 20:33 55.42140 18.63535 38467 ft 425 kts 31°
2026-04-30 20:34 55.49544 18.72115 38471 ft 425 kts 31°
2026-04-30 20:35 55.56945 18.80748 38468 ft 425 kts 31°
2026-04-30 20:35 55.64334 18.89399 38468 ft 425 kts 31°
2026-04-30 20:36 55.69258 18.95187 38467 ft 425 kts 31°
2026-04-30 20:37 55.76624 19.03876 38466 ft 425 kts 31°
2026-04-30 20:37 55.81544 19.09702 38465 ft 425 kts 31°
2026-04-30 20:38 55.86462 19.15526 38465 ft 425 kts 31°
2026-04-30 20:38 55.91381 19.21376 38462 ft 425 kts 31°
2026-04-30 20:39 55.98766 19.30191 38460 ft 425 kts 31°
2026-04-30 20:40 56.06150 19.39044 38460 ft 425 kts 31°
2026-04-30 20:40 56.11057 19.44951 38460 ft 425 kts 31°
2026-04-30 20:41 56.18397 19.53821 38454 ft 426 kts 31°
2026-04-30 20:41 56.23317 19.59782 38455 ft 426 kts 31°
2026-04-30 20:42 56.28234 19.65758 38452 ft 426 kts 31°
2026-04-30 20:43 56.35598 19.74756 38457 ft 426 kts 31°
2026-04-30 20:43 56.40512 19.80781 38456 ft 427 kts 31°
2026-04-30 20:44 56.47851 19.89812 38454 ft 427 kts 31°
2026-04-30 20:45 56.57660 20.01949 38448 ft 427 kts 31°
2026-04-30 20:45 56.62558 20.08040 38451 ft 427 kts 31°
2026-04-30 20:46 56.72385 20.20318 38441 ft 428 kts 31°
2026-04-30 20:47 56.79708 20.29518 38441 ft 428 kts 32°
2026-04-30 20:48 56.87066 20.38809 38438 ft 428 kts 32°
2026-04-30 20:48 56.91964 20.45019 38435 ft 428 kts 32°
2026-04-30 20:49 56.96856 20.51240 38435 ft 428 kts 32°
2026-04-30 20:50 57.04205 20.60625 38427 ft 428 kts 32°
2026-04-30 20:50 57.09101 20.66902 38427 ft 428 kts 32°
2026-04-30 20:51 57.13985 20.73186 38427 ft 429 kts 32°
2026-04-30 20:51 57.21294 20.82627 38425 ft 429 kts 32°
2026-04-30 20:52 57.25373 20.87917 38425 ft 428 kts 32°
2026-04-30 20:52 57.30244 20.94252 38084 ft 427 kts 33°
2026-04-30 20:53 57.32678 20.97426 38329 ft 426 kts 33°
2026-04-30 20:53 57.37552 21.03796 38393 ft 432 kts 33°
2026-04-30 20:54 57.44905 21.13447 38374 ft 433 kts 33°
2026-04-30 20:55 57.52267 21.23161 38375 ft 432 kts 33°
2026-04-30 20:55 57.57178 21.29667 38376 ft 433 kts 33°
2026-04-30 20:56 57.64544 21.39466 38392 ft 433 kts 33°
2026-04-30 20:57 57.71909 21.49315 38405 ft 433 kts 33°
2026-04-30 20:57 57.76836 21.55932 38408 ft 433 kts 33°
2026-04-30 20:58 57.84164 21.65815 38403 ft 432 kts 33°
2026-04-30 20:58 57.88897 21.72846 38396 ft 434 kts 38°
2026-04-30 20:59 57.95626 21.84118 38388 ft 434 kts 38°
2026-04-30 21:00 58.04748 21.99066 38387 ft 432 kts 38°
2026-04-30 21:01 58.11556 22.10169 38389 ft 431 kts 38°
2026-04-30 21:02 58.18385 22.21375 38376 ft 431 kts 38°
2026-04-30 21:02 58.22913 22.28843 38377 ft 431 kts 38°
2026-04-30 21:03 58.27437 22.36328 38372 ft 432 kts 38°
2026-04-30 21:03 58.31963 22.43843 38368 ft 432 kts 38°
2026-04-30 21:04 58.36483 22.51376 38369 ft 432 kts 38°
2026-04-30 21:04 58.43241 22.62688 38360 ft 432 kts 38°
2026-04-30 21:05 58.47757 22.70282 38360 ft 432 kts 38°
2026-04-30 21:05 58.52267 22.77890 38354 ft 433 kts 38°
2026-04-30 21:06 58.56778 22.85530 38352 ft 433 kts 38°
2026-04-30 21:06 58.61290 22.93198 38350 ft 433 kts 38°
2026-04-30 21:07 58.65790 23.00875 38344 ft 433 kts 38°
2026-04-30 21:07 58.70294 23.08585 38328 ft 433 kts 38°
2026-04-30 21:08 58.74785 23.16300 38321 ft 433 kts 38°
2026-04-30 21:08 58.79303 23.24089 38317 ft 433 kts 38°
2026-04-30 21:09 58.83789 23.31852 38318 ft 432 kts 38°
2026-04-30 21:09 58.88267 23.39629 38318 ft 433 kts 38°
2026-04-30 21:10 58.92736 23.47419 38382 ft 433 kts 38°
2026-04-30 21:10 58.97168 23.55176 38324 ft 430 kts 38°
2026-04-30 21:11 59.01604 23.62965 38325 ft 429 kts 38°
2026-04-30 21:11 59.06028 23.70759 38317 ft 429 kts 38°
2026-04-30 21:12 59.10455 23.78587 38282 ft 429 kts 38°
2026-04-30 21:12 59.14879 23.86441 38260 ft 430 kts 38°
2026-04-30 21:13 59.19279 23.94278 38237 ft 431 kts 38°
2026-04-30 21:13 59.23712 24.02205 38216 ft 431 kts 38°
2026-04-30 21:14 59.28135 24.10142 38211 ft 431 kts 38°
2026-04-30 21:14 59.32556 24.18107 38211 ft 431 kts 38°
2026-04-30 21:15 59.36973 24.26093 38216 ft 431 kts 39°
2026-04-30 21:15 59.41389 24.34107 38228 ft 432 kts 39°
2026-04-30 21:16 59.45766 24.42080 38240 ft 432 kts 39°
2026-04-30 21:16 59.50172 24.50135 38233 ft 432 kts 39°
2026-04-30 21:17 59.54573 24.58212 38232 ft 432 kts 39°
2026-04-30 21:17 59.58960 24.66291 38257 ft 432 kts 39°
2026-04-30 21:18 59.63364 24.74437 38206 ft 430 kts 39°
2026-04-30 21:18 59.67696 24.82475 38204 ft 430 kts 39°
2026-04-30 21:19 59.72053 24.90592 38201 ft 430 kts 39°
2026-04-30 21:19 59.76408 24.98734 38199 ft 430 kts 39°
2026-04-30 21:20 59.80756 25.06894 38199 ft 430 kts 39°
2026-04-30 21:20 59.85107 25.15093 38196 ft 429 kts 39°
2026-04-30 21:21 59.89440 25.23287 38196 ft 429 kts 39°
2026-04-30 21:22 59.95882 25.35669 38193 ft 432 kts 40°
2026-04-30 21:23 60.03728 25.51054 38196 ft 429 kts 40°
2026-04-30 21:23 60.10128 25.63632 38193 ft 429 kts 40°
2026-04-30 21:24 60.14394 25.72048 38191 ft 430 kts 40°
2026-04-30 21:24 60.18650 25.80480 38187 ft 430 kts 40°
2026-04-30 21:25 60.25029 25.93183 38188 ft 429 kts 40°
2026-04-30 21:26 60.31363 26.05866 38191 ft 431 kts 40°
2026-04-30 21:27 60.37747 26.18722 38190 ft 431 kts 40°
2026-04-30 21:27 60.41989 26.27309 38190 ft 431 kts 40°
2026-04-30 21:28 60.48337 26.40221 38190 ft 431 kts 40°
2026-04-30 21:29 60.54684 26.53209 38187 ft 432 kts 40°
2026-04-30 21:30 60.65237 26.74970 38193 ft 432 kts 40°
2026-04-30 21:31 60.75756 26.96882 38204 ft 432 kts 40°
2026-04-30 21:32 60.82049 27.10091 38208 ft 433 kts 40°
2026-04-30 21:32 60.86248 27.18951 38176 ft 433 kts 40°
2026-04-30 21:33 60.92538 27.32288 38175 ft 433 kts 40°
2026-04-30 21:34 60.96726 27.41215 38180 ft 433 kts 40°
2026-04-30 21:34 61.03002 27.54660 38170 ft 434 kts 41°
2026-04-30 21:35 61.07181 27.63657 38161 ft 434 kts 41°
2026-04-30 21:35 61.11327 27.72620 38165 ft 434 kts 41°
2026-04-30 21:36 61.15496 27.81670 38166 ft 434 kts 41°
2026-04-30 21:37 61.23827 27.99864 38165 ft 435 kts 41°
2026-04-30 21:37 61.27993 28.09020 38160 ft 435 kts 41°
2026-04-30 21:38 61.32145 28.18183 38171 ft 435 kts 41°
2026-04-30 21:38 61.36309 28.27410 38164 ft 435 kts 41°
2026-04-30 21:39 61.40423 28.36564 38179 ft 435 kts 41°
2026-04-30 21:39 61.44600 28.45895 38167 ft 436 kts 41°
2026-04-30 21:40 61.48718 28.55133 38170 ft 436 kts 41°
2026-04-30 21:40 61.52862 28.64473 38165 ft 436 kts 41°
2026-04-30 21:41 61.56991 28.73815 38168 ft 436 kts 41°
2026-04-30 21:41 61.61118 28.83192 38170 ft 436 kts 41°
2026-04-30 21:42 61.65239 28.92596 38171 ft 437 kts 42°
2026-04-30 21:42 61.69352 29.02020 38170 ft 437 kts 42°
2026-04-30 21:43 61.73458 29.11469 38174 ft 437 kts 42°
2026-04-30 21:43 61.77556 29.20938 38173 ft 437 kts 42°
2026-04-30 21:44 61.81656 29.30454 38173 ft 437 kts 42°
2026-04-30 21:44 61.83688 29.35186 38617 ft 437 kts 42°
2026-04-30 21:44 61.85755 29.39999 38391 ft 444 kts 44°
2026-04-30 21:45 61.87853 29.44896 38192 ft 452 kts 44°
2026-04-30 21:45 61.89968 29.49846 38171 ft 456 kts 44°
2026-04-30 21:45 61.94251 29.59921 38170 ft 460 kts 44°
2026-04-30 21:46 61.98510 29.69994 38172 ft 459 kts 44°
2026-04-30 21:46 62.02772 29.80114 38172 ft 459 kts 44°
2026-04-30 21:47 62.07032 29.90267 38178 ft 459 kts 44°
2026-04-30 21:47 62.11323 30.00541 38174 ft 460 kts 45°
2026-04-30 21:48 62.15582 30.10788 38173 ft 460 kts 45°
2026-04-30 21:48 62.19799 30.20978 38177 ft 460 kts 45°
2026-04-30 21:49 62.24062 30.31327 38172 ft 460 kts 45°
2026-04-30 21:49 62.28266 30.41582 38186 ft 460 kts 45°
2026-04-30 21:50 62.32507 30.51974 38164 ft 461 kts 45°
2026-04-30 21:50 62.36734 30.62377 38172 ft 462 kts 45°
2026-04-30 21:51 62.40965 30.72840 38175 ft 465 kts 45°
2026-04-30 21:51 62.45216 30.83403 38178 ft 465 kts 45°
2026-04-30 21:52 62.49455 30.93990 38189 ft 465 kts 46°
2026-04-30 21:52 62.53688 31.04608 38169 ft 467 kts 46°
2026-04-30 21:53 62.57940 31.15325 38168 ft 467 kts 46°
2026-04-30 21:53 62.62166 31.26029 38165 ft 467 kts 46°
2026-04-30 21:54 62.66302 31.36936 38168 ft 470 kts 51°
2026-04-30 21:54 62.69149 31.47164 38169 ft 473 kts 56°
2026-04-30 21:55 62.72360 31.59690 38170 ft 473 kts 57°
2026-04-30 21:55 62.75510 31.72242 38167 ft 474 kts 57°
2026-04-30 21:56 62.78668 31.84866 38167 ft 474 kts 57°
2026-04-30 21:56 62.81826 31.97522 38167 ft 474 kts 57°
2026-04-30 21:57 62.84978 32.10171 38162 ft 474 kts 58°
2026-04-30 21:57 62.88120 32.22884 38175 ft 474 kts 58°
2026-04-30 21:58 62.91253 32.35635 38163 ft 475 kts 58°
2026-04-30 21:58 62.94390 32.48471 38161 ft 477 kts 58°
2026-04-30 21:59 62.97516 32.61332 38158 ft 477 kts 58°
2026-04-30 22:00 63.02189 32.80667 38153 ft 477 kts 58°
2026-04-30 22:00 63.06857 33.00062 38156 ft 477 kts 58°
2026-04-30 22:01 63.09960 33.13049 38152 ft 479 kts 59°
2026-04-30 22:01 63.13056 33.26093 38140 ft 479 kts 59°
2026-04-30 22:02 63.16121 33.39082 38141 ft 479 kts 59°
2026-04-30 22:02 63.19197 33.52201 38136 ft 479 kts 59°
2026-04-30 22:03 63.22257 33.65324 38134 ft 479 kts 59°
2026-04-30 22:03 63.25309 33.78487 38208 ft 481 kts 60°
2026-04-30 22:04 63.28372 33.91783 38145 ft 483 kts 60°
2026-04-30 22:05 63.32934 34.11755 38121 ft 482 kts 60°
2026-04-30 22:05 63.35957 34.25085 38143 ft 482 kts 60°
2026-04-30 22:06 63.38947 34.38353 38141 ft 482 kts 60°
2026-04-30 22:06 63.43449 34.58483 38123 ft 483 kts 60°
2026-04-30 22:07 63.46437 34.71951 38121 ft 483 kts 60°
2026-04-30 22:07 63.49411 34.85444 38121 ft 483 kts 60°
2026-04-30 22:08 63.52372 34.98959 38120 ft 483 kts 61°
2026-04-30 22:08 63.55319 35.12498 38199 ft 483 kts 61°
2026-04-30 22:09 63.58269 35.26136 38135 ft 485 kts 61°
2026-04-30 22:09 63.61210 35.39823 38116 ft 484 kts 61°
2026-04-30 22:10 63.64136 35.53511 38116 ft 484 kts 61°
2026-04-30 22:10 63.67024 35.67150 38116 ft 485 kts 62°
2026-04-30 22:11 63.71337 35.87758 38119 ft 485 kts 62°
2026-04-30 22:12 63.74206 36.01560 38117 ft 485 kts 62°
2026-04-30 22:12 63.77062 36.15377 38111 ft 485 kts 62°
2026-04-30 22:13 63.79902 36.29209 38112 ft 485 kts 62°
2026-04-30 22:13 63.82735 36.43098 38114 ft 485 kts 62°
2026-04-30 22:14 63.85566 36.57002 38114 ft 485 kts 62°
2026-04-30 22:14 63.88372 36.70880 38121 ft 485 kts 63°
2026-04-30 22:15 63.91166 36.84798 38112 ft 486 kts 63°
2026-04-30 22:15 63.93903 36.98877 38109 ft 487 kts 64°
2026-04-30 22:16 63.96604 37.13033 38105 ft 487 kts 64°
2026-04-30 22:17 64.01982 37.41369 38102 ft 487 kts 64°
2026-04-30 22:17 64.05994 37.62717 38100 ft 488 kts 64°
2026-04-30 22:18 64.09979 37.84160 38096 ft 488 kts 64°
2026-04-30 22:19 64.13923 38.05616 38093 ft 488 kts 65°
2026-04-30 22:20 64.17844 38.27176 38100 ft 488 kts 65°
2026-04-30 22:20 64.21741 38.48836 38089 ft 490 kts 65°
2026-04-30 22:21 64.24315 38.63281 38089 ft 490 kts 65°
2026-04-30 22:21 64.26887 38.77816 38083 ft 490 kts 65°
2026-04-30 22:22 64.29452 38.92382 38083 ft 490 kts 65°
2026-04-30 22:22 64.32019 39.06940 38092 ft 490 kts 65°
2026-04-30 22:23 64.34576 39.21562 38077 ft 491 kts 66°
2026-04-30 22:23 64.37111 39.36186 38074 ft 491 kts 66°
2026-04-30 22:24 64.39637 39.50881 38070 ft 491 kts 66°
2026-04-30 22:24 64.42125 39.65466 38063 ft 491 kts 66°
2026-04-30 22:25 64.44625 39.80209 38059 ft 491 kts 66°
2026-04-30 22:25 64.47149 39.94918 38062 ft 491 kts 66°
2026-04-30 22:26 64.50937 40.17095 38042 ft 493 kts 66°
2026-04-30 22:27 64.53439 40.31945 38063 ft 493 kts 66°
2026-04-30 22:27 64.57162 40.54276 38075 ft 493 kts 67°
2026-04-30 22:28 64.60859 40.76685 38077 ft 494 kts 67°
2026-04-30 22:29 64.65518 41.04072 38062 ft 494 kts 66°
2026-04-30 22:31 64.74234 41.56467 38016 ft 494 kts 67°
2026-04-30 22:32 64.80356 41.94236 37998 ft 496 kts 68°
2026-04-30 22:33 64.86410 42.32073 37994 ft 496 kts 68°
2026-04-30 22:35 64.92408 42.70266 37984 ft 497 kts 68°
2026-04-30 22:36 64.98305 43.08641 37966 ft 497 kts 69°
2026-04-30 22:37 65.02938 43.39367 37953 ft 497 kts 69°
2026-04-30 22:38 65.07531 43.70347 37951 ft 498 kts 69°
2026-04-30 22:39 65.10935 43.93669 37953 ft 498 kts 70°
2026-04-30 22:40 65.17307 44.40680 37876 ft 497 kts 72°
2026-04-30 22:41 65.22002 44.80229 37867 ft 497 kts 71°
2026-04-30 22:43 65.27650 45.28097 37860 ft 499 kts 72°
2026-04-30 22:44 65.31326 45.60127 37848 ft 499 kts 72°
2026-04-30 22:45 65.36703 46.08235 37843 ft 500 kts 73°
2026-04-30 22:47 65.41952 46.56789 37817 ft 500 kts 73°
2026-04-30 22:48 65.45365 46.89262 38002 ft 501 kts 74°
2026-04-30 22:49 65.50354 47.38147 37992 ft 501 kts 74°
2026-04-30 22:51 65.55194 47.87286 37994 ft 502 kts 75°
2026-04-30 22:52 65.57558 48.11982 37996 ft 502 kts 75°
2026-04-30 22:53 65.60646 48.44939 37977 ft 502 kts 76°
2026-04-30 22:53 65.62922 48.69770 37977 ft 503 kts 76°
2026-04-30 22:55 65.66677 49.11189 37971 ft 504 kts 76°
2026-04-30 22:56 65.69642 49.44464 37966 ft 504 kts 77°
2026-04-30 22:57 65.73241 49.86253 37960 ft 505 kts 77°
2026-04-30 22:58 65.76120 50.19762 37960 ft 505 kts 76°
2026-04-30 22:59 65.80577 50.70115 37952 ft 509 kts 77°
2026-05-01 07:23 35.73582 140.04643 4913 ft 150 kts 206°
2026-05-01 07:23 35.71956 140.03384 4784 ft 135 kts 224°
2026-05-01 07:24 35.71290 140.02571 4713 ft 134 kts 224°
2026-05-01 07:24 35.70627 140.01767 4650 ft 134 kts 223°
2026-05-01 07:24 35.69959 140.00970 4570 ft 133 kts 223°
2026-05-01 07:24 35.69311 140.00205 4523 ft 123 kts 223°
2026-05-01 07:25 35.68709 139.99498 4371 ft 116 kts 223°
2026-05-01 07:25 35.68137 139.98827 4192 ft 112 kts 223°
2026-05-01 07:25 35.67585 139.98177 3978 ft 108 kts 223°
2026-05-01 07:25 35.67051 139.97544 3687 ft 105 kts 223°
2026-05-01 07:26 35.66537 139.96935 3499 ft 100 kts 223°
2026-05-01 07:26 35.66035 139.96337 3360 ft 101 kts 223°
2026-05-01 07:26 35.65531 139.95737 3215 ft 101 kts 223°
2026-05-01 07:26 35.65029 139.95140 3082 ft 101 kts 223°
2026-05-01 07:27 35.64529 139.94545 2947 ft 100 kts 223°
2026-05-01 07:27 35.64022 139.93943 2806 ft 100 kts 223°
2026-05-01 07:27 35.63525 139.93352 2666 ft 99 kts 223°
2026-05-01 07:27 35.63033 139.92768 2484 ft 103 kts 223°
2026-05-01 07:28 35.62497 139.92131 2334 ft 108 kts 223°
2026-05-01 07:28 35.61960 139.91494 2188 ft 109 kts 223°
2026-05-01 07:28 35.61412 139.90844 2044 ft 109 kts 223°
2026-05-01 07:28 35.60872 139.90202 1884 ft 109 kts 222°
2026-05-01 07:29 35.60266 139.89483 1728 ft 110 kts 222°
2026-05-01 07:29 35.59724 139.88838 1608 ft 112 kts 223°
2026-05-01 07:29 35.59166 139.88173 1445 ft 113 kts 219°
2026-05-01 07:29 35.58594 139.87500 1300 ft 113 kts 219°
2026-05-01 07:30 35.58024 139.86821 1145 ft 113 kts 219°
2026-05-01 07:30 35.57451 139.86142 986 ft 115 kts 219°
2026-05-01 07:30 35.56877 139.85456 820 ft 116 kts 220°
2026-05-01 07:30 35.56294 139.84747 713 ft 119 kts 220°
2026-05-01 07:31 35.55702 139.84042 515 ft 120 kts 218°
2026-05-01 07:31 35.53857 139.81969 51 ft 118 kts 217°
2026-05-01 07:32 35.52861 139.80866 29 ft 64 kts 222°
2026-05-01 07:32 35.52646 139.80625 29 ft 15 kts 223°
2026-05-01 07:33 35.52497 139.80435 29 ft 14 kts 238°
2026-05-01 07:33 35.52461 139.80333 30 ft 8 kts 255°
2026-05-01 07:33 35.52502 139.80232 30 ft 10 kts 304°
2026-05-01 07:34 35.52551 139.80166 30 ft 11 kts 322°
2026-05-01 07:34 35.52649 139.80171 30 ft 8 kts 40°
2026-05-01 07:34 35.52713 139.80242 30 ft 15 kts 42°
2026-05-01 07:35 35.52802 139.80341 30 ft 19 kts 42°
2026-05-01 07:35 35.52908 139.80460 30 ft 23 kts 43°
2026-05-01 07:35 35.52971 139.80512 30 ft 9 kts 18°
2026-05-01 07:35 35.53025 139.80509 30 ft 8 kts 342°
2026-05-01 07:36 35.53087 139.80467 30 ft 13 kts 329°
2026-05-01 07:36 35.53152 139.80420 28 ft 18 kts 329°
2026-05-01 07:36 35.53273 139.80332 30 ft 22 kts 329°
2026-05-01 07:36 35.53414 139.80229 30 ft 25 kts 329°
2026-05-01 07:37 35.53666 139.80055 30 ft 18 kts 330°
2026-05-01 07:37 35.53705 139.79973 30 ft 7 kts 261°
2026-05-01 07:37 35.53687 139.79913 30 ft 8 kts 242°
2026-05-01 07:38 35.53652 139.79839 30 ft 12 kts 239°
2026-05-01 07:38 35.53601 139.79732 30 ft 17 kts 239°
2026-05-01 07:38 35.53459 139.79436 30 ft 23 kts 239°
2026-05-01 07:39 35.53396 139.79308 30 ft 15 kts 240°
2026-05-01 07:39 35.53379 139.79197 30 ft 13 kts 279°
2026-05-01 07:39 35.53498 139.79064 30 ft 20 kts 337°
2026-05-01 07:40 35.53631 139.78972 28 ft 24 kts 330°
2026-05-01 07:40 35.53783 139.78865 30 ft 27 kts 330°
2026-05-01 07:40 35.53910 139.78771 30 ft 15 kts 328°
2026-05-01 07:40 35.54010 139.78698 30 ft 18 kts 329°
2026-05-01 07:41 35.54121 139.78619 30 ft 14 kts 330°
2026-05-01 07:41 35.54202 139.78562 31 ft 6 kts 330°
2026-05-01 07:41 35.54247 139.78474 31 ft 5 kts 251°
2026-05-01 07:42 35.54221 139.78452 30 ft 5 kts 201°
2026-05-01 07:42 35.54186 139.78449 29 ft 6 kts 179°
2026-05-01 07:42 35.54142 139.78436 30 ft 6 kts 211°
2026-05-01 07:42 35.54115 139.78394 29 ft 7 kts 239°
2026-05-01 07:43 35.54087 139.78337 31 ft 8 kts 239°
2026-05-01 07:43 35.54052 139.78266 31 ft 11 kts 239°
2026-05-01 07:43 35.54002 139.78082 30 ft 8 kts 303°
2026-05-01 07:44 35.54155 139.77961 29 ft 18 kts 329°
2026-05-01 07:44 35.54424 139.77768 29 ft 26 kts 330°
2026-05-01 07:45 35.54596 139.77645 29 ft 30 kts 329°
2026-05-01 07:45 35.54748 139.77538 29 ft 23 kts 329°
2026-05-01 07:45 35.54890 139.77437 29 ft 24 kts 330°
2026-05-01 07:45 35.55049 139.77326 29 ft 28 kts 330°
2026-05-01 07:46 35.55175 139.77238 29 ft 21 kts 330°
2026-05-01 07:46 35.55279 139.77162 29 ft 6 kts 323°
2026-05-01 07:46 35.55291 139.77052 29 ft 7 kts 201°
2026-05-01 07:47 35.55251 139.77059 29 ft 7 kts 164°
2026-05-01 07:47 35.55198 139.77086 29 ft 9 kts 154°
2026-05-01 07:47 35.55147 139.77083 29 ft 6 kts 205°
2026-05-01 07:47 35.55114 139.77039 29 ft 8 kts 236°
2026-05-01 07:48 35.55027 139.76854 29 ft 16 kts 239°
2026-05-01 07:48 35.55009 139.76815 29 ft 0 kts 239°
2026-05-01 07:48 35.54998 139.76793 29 ft 9 kts 239°
2026-05-01 07:49 35.54993 139.76782 29 ft 2 kts 240°
2026-05-01 07:49 35.54948 139.76715 29 ft 2 kts 187°
2026-05-01 07:49 35.54928 139.76722 29 ft 4 kts 158°
2026-05-01 07:50 35.54906 139.76737 29 ft 0 kts 151°
2026-05-01 07:50 35.54894 139.76744 29 ft 0 kts 151°
2026-05-01 07:52 35.54896 139.76743 29 ft 0 kts 150°